Location: Buena Vista Lake
(37.6001°N, 119.5170°W)
Time: 13:34:43
(UTC+00:00)

Cosmos 1939 Rocket - Pass Details

Date: 05 August 2024
Orbit: 511 x 551 km, 97.5° (Epoch: 15 September)

Event Time Altitude Azimuth Distance (km) Brightness Sun altitude
Rises 12:08:33 0° 19° (NNE) 2,637 7.2 -11.0°
Reaches altitude 10° 12:10:44 10° 27° (NNE) 1,750 6.4 -10.6°
Maximum altitude 12:14:19 41° 99° (E) 765 4.0 -10.0°
Drops below altitude 10° 12:17:54 10° 170° (S) 1,757 5.2 -9.4°
Sets 12:20:06 0° 178° (S) 2,648 6.0 -9.0°
